Location: Shepherdstown, WV
(39.4326°N, 77.8042°W)
Time: 04:23:05
(UTC-04:00)

Vanguard 1 - Pass Details

Date: 09 August 2021
Orbit: 652 x 3831 km, 34.3° (Epoch: 24 September)

Event Time Altitude Azimuth Distance (km) Brightness Sun altitude
Rises 16:19:21 0° 257° (WSW) 3,873 13.9 43.7°
Reaches altitude 10° 16:23:50 10° 229° (SW) 3,432 13.8 42.9°
Maximum altitude 16:27:13 13° 206° (SSW) 3,627 13.6 42.2°
Drops below altitude 10° 16:31:19 10° 184° (S) 4,322 13.7 41.5°
Sets 16:39:04 0° 161° (SSE) 6,184 14.1 40.0°
